EW6664 Weather Reports


time (UTC)temp
F
wind
direction
speed
knots
gust
knots
rain 1hr
in
rain 24hr
in
rain mn
in
humidity
%
barometer
mb
20260504110444 45 61 0.9 2.6 0.00 0.00 0.00 82 1006.5
20260504100406 43 149 2.6 5.2 0.00 0.00 0.00 87 1006.6
20260504081759 44 187 1.7 2.6 0.00 0.00 0.00 71 1006.8
20260504081256 44 118 0.9 3.5 0.00 0.00 0.00 71 1006.9
20260504080753 44 142 0.9 2.6 0.00 0.00 0.00 70 1007.1
20260504080249 44 131 1.7 5.2 0.00 0.00 0.00 70 1007.0
20260504070217 43 292 0.9 7.0 0.00 0.00 0.00 66 1007.1
20260504060137 43 169 1.7 3.5 0.00 0.00 0.00 60 1007.1
20260504050605 43 111 0.9 1.7 0.00 0.00 0.00 49 1007.4
20260504045559 43 120 0.9 1.7 0.00 0.00 0.00 50 1007.5
20260504045054 43 105 0.9 0.9 0.00 0.00 0.00 51 1007.4
20260504044552 43 82 0.0 1.7 0.00 0.00 0.00 51 1007.7
20260504044049 43 121 0.9 1.7 0.00 0.00 0.00 51 1007.5
20260504043546 43 125 0.9 0.9 0.00 0.00 0.00 51 1007.6
20260504043043 43 99 0.0 2.6 0.00 0.00 0.00 52 1007.5
20260504042540 43 104 0.0 0.9 0.00 0.00 0.00 51 1007.8
20260504042037 43 106 0.0 1.7 0.00 0.00 0.00 51 1007.8
20260504041533 42 115 0.9 1.7 0.00 0.00 0.00 52 1007.7
20260504041029 42 172 1.7 2.6 0.00 0.00 0.00 51 1007.7
20260504040527 42 126 0.9 5.2 0.00 0.00 0.00 52 1007.6
20260504040023 41 122 0.9 0.9 0.00 0.00 0.00 52 1007.8
20260504035520 41 109 0.0 2.6 0.00 0.00 0.00 52 1007.8
20260504035016 41 119 0.9 1.7 0.00 0.00 0.00 53 1007.6
20260504034514 40 116 0.9 2.6 0.00 0.00 0.00 54 1007.9
20260504034011 40 111 0.9 0.9 0.00 0.00 0.00 54 1007.6
20260504033509 40 106 0.0 0.9 0.00 0.00 0.00 55 1007.7
20260504033006 40 102 0.9 0.9 0.00 0.00 0.00 55 1007.6
20260504032503 40 106 0.9 2.6 0.00 0.00 0.00 54 1007.9
20260504031959 40 101 0.0 0.9 0.00 0.00 0.00 56 1007.8
20260504031456 40 106 0.9 0.9 0.00 0.00 0.00 56 1008.0
20260504030953 40 104 0.0 2.6 0.00 0.00 0.00 57 1008.0
20260504030450 40 106 0.0 0.9 0.00 0.00 0.00 56 1007.8
20260504025946 41 105 0.9 0.9 0.00 0.00 0.00 56 1007.8
20260504025443 41 106 0.9 2.6 0.00 0.00 0.00 55 1008.0
20260504024940 41 103 0.0 0.9 0.00 0.00 0.00 56 1008.1
20260504024437 41 93 0.0 0.0 0.00 0.00 0.00 56 1008.0
20260504023934 41 94 0.0 0.9 0.00 0.00 0.00 56 1008.0
20260504023430 41 105 0.0 0.0 0.00 0.00 0.00 56 1008.4
20260504022926 41 92 0.0 0.9 0.00 0.00 0.00 57 1007.9
20260504022423 40 114 0.9 1.7 0.00 0.00 0.00 57 1008.4
20260504021919 40 101 0.0 0.9 0.00 0.00 0.00 59 1007.9
20260504021417 40 103 0.0 0.9 0.00 0.00 0.00 58 1008.2
20260504020914 40 96 0.0 0.9 0.00 0.00 0.00 58 1008.0
20260504020410 40 110 0.0 0.0 0.00 0.00 0.00 58 1008.2
20260504015907 40 111 0.0 0.9 0.00 0.00 0.00 57 1008.1
20260504015403 40 109 0.0 0.0 0.00 0.00 0.00 58 1008.1
20260504014859 40 109 0.9 0.9 0.00 0.00 0.00 58 1008.2
20260504014355 40 109 0.0 0.9 0.00 0.00 0.00 58 1008.1
20260504013853 40 109 0.0 0.9 0.00 0.00 0.00 59 1008.2
20260504013351 40 108 0.0 0.0 0.00 0.00 0.00 59 1008.4
20260504012847 40 108 0.0 0.0 0.00 0.00 0.00 58 1008.4
20260504012345 40 109 0.0 0.0 0.00 0.00 0.00 58 1008.0
20260504011842 40 109 0.0 0.0 0.00 0.00 0.00 57 1008.1
20260504011338 41 108 0.0 0.0 0.00 0.00 0.00 57 1008.2
20260504010834 41 108 0.0 0.0 0.00 0.00 0.00 57 1008.2
20260504010330 41 109 0.0 0.0 0.00 0.00 0.00 56 1008.2
20260504005827 41 107 0.0 0.9 0.00 0.00 0.00 57 1008.1
20260504005324 41 102 0.0 0.9 0.00 0.00 0.00 58 1007.9
20260504004821 41 103 0.9 0.9 0.00 0.00 0.00 56 1007.9
20260504004319 42 101 0.0 0.0 0.00 0.00 0.00 55 1007.7
20260504003815 42 101 0.0 0.9 0.00 0.00 0.00 54 1007.8
20260504003312 42 101 0.0 0.9 0.00 0.00 0.00 54 1007.8
20260504002809 42 127 0.0 0.0 0.00 0.00 0.00 54 1007.9
20260504002306 43 127 0.0 0.9 0.00 0.00 0.00 53 1008.0
20260504001803 43 127 0.9 0.9 0.00 0.00 0.00 52 1007.9
20260504001300 44 127 0.0 0.9 0.00 0.00 0.00 51 1007.7
20260504000757 44 127 0.0 0.0 0.00 0.00 0.00 51 1007.8
20260504000254 44 128 0.0 0.0 0.00 0.00 0.00 50 1007.7
20260503235752 45 129 0.9 1.7 0.00 0.00 0.00 49 1007.8
20260503235249 46 106 0.0 0.9 0.00 0.00 0.00 51 1007.8
20260503234747 46 110 0.9 0.9 0.00 0.00 0.00 46 1007.5
20260503234245 47 61 0.0 0.9 0.00 0.00 0.00 46 1007.5
20260503233741 47 46 0.0 0.9 0.00 0.00 0.00 48 1007.6
20260503233237 47 64 0.0 0.9 0.00 0.00 0.00 46 1007.6
20260503232734 47 78 0.9 1.7 0.00 0.00 0.00 50 1007.7
20260503232232 46 23 0.9 0.9 0.00 0.00 0.00 46 1007.7
20260503231730 47 23 0.0 0.0 0.00 0.00 0.00 50 1007.6
20260503231226 47 23 0.0 0.0 0.00 0.00 0.00 48 1007.6
20260503230722 47 24 0.0 0.0 0.00 0.00 0.00 46 1007.6
20260503230220 47 24 0.0 0.9 0.00 0.00 0.00 46 1007.6
20260503225717 47 30 0.9 0.9 0.00 0.00 0.00 45 1007.6
20260503225217 47 36 0.9 1.7 0.00 0.00 0.00 45 1007.6
20260503224715 48 37 0.0 0.9 0.00 0.00 0.00 45 1007.6
20260503224212 48 41 0.9 1.7 0.00 0.00 0.00 43 1007.5
20260503223710 48 38 0.9 1.7 0.00 0.00 0.00 44 1007.7
20260503223207 48 44 0.9 0.9 0.00 0.00 0.00 43 1007.6
20260503222703 48 20 0.9 1.7 0.00 0.00 0.00 44 1007.7
20260503222201 48 35 0.0 0.9 0.00 0.00 0.00 44 1007.5
20260503221659 48 62 0.0 0.9 0.00 0.00 0.00 43 1007.5
20260503221156 48 44 0.9 1.7 0.00 0.00 0.00 43 1007.7
20260503220653 49 40 0.0 1.7 0.00 0.00 0.00 42 1007.5
20260503220149 49 333 1.7 1.7 0.00 0.00 0.00 44 1007.5
20260503215647 48 20 0.9 0.9 0.00 0.00 0.00 44 1007.6
20260503215143 48 79 0.9 1.7 0.00 0.00 0.00 44 1007.3
20260503214643 49 133 0.9 1.7 0.00 0.00 0.00 42 1007.5
20260503214138 48 356 1.7 2.6 0.00 0.00 0.00 42 1007.6
20260503213637 49 18 1.7 2.6 0.00 0.00 0.00 44 1007.6
20260503213133 49 44 0.0 1.7 0.00 0.00 0.00 41 1007.5
20260503212631 50 94 0.0 0.9 0.00 0.00 0.00 44 1007.4
20260503212128 50 100 0.0 1.7 0.00 0.00 0.00 41 1007.5
20260503211626 48 32 0.9 1.7 0.00 0.00 0.00 45 1007.5
20260503211121 48 0 0.9 0.9 0.00 0.00 0.00 45 1007.6
20260503210618 48 2 0.9 1.7 0.00 0.00 0.00 49 1007.3
20260503210114 48 33 0.9 1.7 0.00 0.00 0.00 48 1007.5
20260503205610 48 30 0.9 1.7 0.00 0.00 0.00 46 1007.6
20260503205107 48 23 0.9 1.7 0.00 0.00 0.00 45 1007.4
20260503204604 48 323 1.7 5.2 0.00 0.00 0.00 45 1007.6
20260503204101 47 35 0.9 2.6 0.00 0.00 0.00 46 1007.5
20260503203558 47 15 0.9 2.6 0.00 0.00 0.00 46 1007.6
20260503203055 47 16 0.9 1.7 0.00 0.00 0.00 47 1007.6
20260503202553 47 297 2.6 6.1 0.00 0.00 0.00 46 1007.8
20260503202050 47 18 1.7 3.5 0.00 0.00 0.00 45 1007.9
20260503201549 47 223 2.6 3.5 0.00 0.00 0.00 46 1007.5
20260503201045 48 326 4.3 5.2 0.00 0.00 0.00 43 1007.5
20260503200541 47 27 0.9 3.5 0.00 0.00 0.00 49 1007.6
20260503200038 47 4 1.7 2.6 0.00 0.00 0.00 47 1007.5
20260503195536 46 48 1.7 2.6 0.00 0.00 0.00 52 1007.6
20260503195032 46 6 1.7 2.6 0.00 0.00 0.00 50 1008.0
20260503194530 46 286 2.6 3.5 0.00 0.00 0.00 49 1007.9
20260503194029 46 332 1.7 2.6 0.00 0.00 0.00 51 1008.0
20260503193526 46 275 2.6 2.6 0.00 0.00 0.00 48 1007.9
20260503193021 47 314 1.7 2.6 0.00 0.00 0.00 50 1008.0
20260503192518 48 37 0.0 0.9 0.00 0.00 0.00 47 1008.0
20260503192014 48 31 0.9 2.6 0.00 0.00 0.00 46 1008.0
20260503191511 50 50 5.2 6.1 0.00 0.00 0.00 44 1008.0
20260503191008 49 286 2.6 2.6 0.00 0.00 0.00 48 1007.9
20260503190505 47 295 2.6 2.6 0.00 0.00 0.00 51 1008.0
20260503190002 46 36 0.9 2.6 0.00 0.00 0.00 51 1008.2
20260503185458 47 310 1.7 3.5 0.00 0.00 0.00 50 1008.1
20260503184957 47 319 2.6 5.2 0.00 0.00 0.00 48 1008.1
20260503184454 47 18 0.9 1.7 0.00 0.00 0.00 50 1008.5
20260503183950 46 24 0.0 1.7 0.00 0.00 0.00 54 1008.4
20260503183447 46 279 2.6 3.5 0.00 0.00 0.00 50 1008.6
20260503182944 47 319 1.7 5.2 0.00 0.00 0.00 50 1008.4
20260503182443 46 326 1.7 2.6 0.00 0.00 0.00 50 1008.5
20260503181940 46 8 0.9 2.6 0.00 0.00 0.00 52 1008.4
20260503181437 47 49 0.9 1.7 0.00 0.00 0.00 51 1008.6
20260503180933 47 12 1.7 3.5 0.00 0.00 0.00 51 1008.5
20260503180432 46 36 0.9 3.5 0.00 0.00 0.00 51 1008.8
20260503175928 46 1 1.7 3.5 0.00 0.00 0.00 51 1008.6
20260503175426 46 352 1.7 2.6 0.00 0.00 0.00 52 1008.6
20260503174921 45 18 0.9 1.7 0.00 0.00 0.00 52 1008.7
20260503174420 46 63 0.9 2.6 0.00 0.00 0.00 53 1008.9
20260503173920 46 244 2.6 2.6 0.00 0.00 0.00 51 1008.5
20260503173416 46 7 1.7 2.6 0.00 0.00 0.00 52 1008.6
20260503172913 46 49 0.9 1.7 0.00 0.00 0.00 53 1008.6
20260503172411 46 7 0.9 2.6 0.00 0.00 0.00 52 1008.8
20260503171907 46 41 0.9 1.7 0.00 0.00 0.00 53 1008.5
20260503171403 46 61 0.9 2.6 0.00 0.00 0.00 53 1008.6
20260503170901 46 337 1.7 1.7 0.00 0.00 0.00 51 1008.8
20260503170357 47 333 3.5 3.5 0.00 0.00 0.00 49 1008.9
20260503150749 46 30 0.9 1.7 0.00 0.00 0.00 55 1009.5
20260503150245 46 35 1.7 1.7 0.00 0.00 0.00 54 1009.5
20260503140210 44 54 0.0 1.7 0.00 0.00 0.00 66 1009.9
20260503131140 42 13 1.7 2.6 0.00 0.00 0.00 79 1010.2
20260503130637 42 86 0.9 1.7 0.00 0.00 0.00 78 1010.2
20260503130134 42 52 0.9 1.7 0.00 0.00 0.00 80 1010.3